[[{"header":{"parameterUnit":"m.s-1","parameterCategory":1,"la1":30.2991,"la2":30.254,"lo1":-89.0895,"lo2":-89.0444,"dy":0.0017,"dx":0.0017,"nx":28,"ny":28,"refTime":"2025-08-07T03:00:00:Z","depth":0,"parameterNumber":2,"parameterNumberName":"U-component_of_WINDS"},"data":[0,0,0,0,0,0,0,0,0,0,0,0,0,0,0,0,0,0,0,0,0,0,0,0,0,0,0,0,0,0,0,0,0,0,0,0,0,0,0,0,0,0,0,0,0,0,0,0,0,0,0,0,0,0,0,0,0,0,-0.6643,-0.6642,0,-0.6605,-0.6604,-0.6604,-0.6584,-0.6584,-0.6584,-0.6584,-0.6543,-0.6542,-0.6541,0,0,0,0,0,0,0,0,0,0,0,0,0,-0.6697,-0.6696,-0.6643,-0.6642,-0.6642,-0.6605,-0.6604,-0.6604,-0.6584,-0.6584,-0.6584,-0.6584,-0.6543,-0.6542,-0.6541,0,0,0,0,0,0,0,0,0,0,0,0,0,-0.6667,-0.6695,-0.6643,-0.6628,-0.6626,-0.6605,-0.6604,-0.6604,-0.6584,-0.6584,-0.6584,-0.6584,-0.6544,-0.6542,-0.6541,-0.6531,0,0,-0.6536,-0.6535,0,0,0,0,0,0,0,0,-0.6669,-0.6665,-0.663,-0.6629,-0.6627,-0.6599,-0.6608,-0.6579,-0.6584,-0.66,-0.6584,-0.6584,-0.6562,-0.6559,-0.6551,-0.6529,-0.6528,-0.6536,-0.6535,-0.6534,-0.6533,0,0,0,0,0,0,0,-0.6671,-0.6667,-0.6628,-0.663,-0.6628,-0.6622,-0.6618,-0.6603,-0.6581,-0.6599,-0.6597,-0.6593,-0.6561,-0.6553,-0.655,-0.6527,-0.6536,-0.6534,-0.6533,-0.6533,-0.6495,-0.6495,0,0,0,0,0,0,-0.6676,-0.6669,-0.6629,-0.6627,-0.6648,-0.6621,-0.6617,-0.6608,-0.6581,-0.6577,-0.6593,-0.6592,-0.6556,-0.6552,-0.6549,-0.6536,-0.6534,-0.6532,-0.6532,-0.6495,-0.6495,-0.6495,0,0,0,0,0,0,-0.6677,-0.6673,-0.663,-0.6647,-0.6641,-0.662,-0.6611,-0.6607,-0.66,-0.6577,-0.6573,-0.6589,-0.6556,-0.6551,-0.6536,-0.6534,-0.6532,-0.653,-0.6495,-0.6495,-0.6495,-0.651,0,0,0,0,0,0,-0.6679,-0.6673,-0.667,-0.6647,-0.6641,-0.6619,-0.6611,-0.6607,-0.6597,-0.6596,-0.6573,-0.6569,-0.6555,-0.6538,-0.6534,-0.6532,-0.6529,-0.6495,-0.6495,-0.6495,-0.6509,-0.651,-0.6511,0,0,0,0,0,-0.6681,-0.6675,-0.667,-0.6665,-0.6636,-0.6619,-0.6615,-0.66,-0.6597,-0.6593,-0.6579,-0.657,-0.6535,-0.6537,-0.6532,-0.6529,-0.6495,-0.6495,-0.6495,-0.6509,-0.651,-0.6511,0,0,0,0,0,0,-0.6697,-0.6672,-0.6666,-0.6653,-0.6638,-0.6616,-0.661,-0.6602,-0.6587,-0.6586,-0.6568,-0.6562,-0.6549,-0.6537,-0.654,-0.6518,-0.6514,-0.6513,-0.6526,-0.6527,-0.6528,-0.6531,-0.6528,0,0,0,0,0,-0.67,-0.6688,-0.6666,-0.6657,-0.665,-0.6632,-0.6623,-0.6613,-0.6597,-0.6591,-0.6575,-0.6559,-0.6544,-0.6535,-0.6521,-0.6508,-0.6502,-0.6503,-0.6504,-0.6505,-0.6504,-0.6496,-0.6496,-0.6494,-0.6494,-0.6494,0,0,-0.6704,-0.6689,-0.6683,-0.666,-0.6648,-0.6636,-0.6627,-0.6614,-0.6605,-0.6588,-0.6573,-0.6561,-0.6542,-0.6528,-0.6521,-0.6518,-0.6503,-0.6505,-0.6506,-0.6504,-0.6496,-0.6496,-0.6496,-0.6494,-0.6494,-0.6494,0,0,-0.6706,-0.6694,-0.6684,-0.6672,-0.6653,-0.6641,-0.6639,-0.6617,-0.6609,-0.6594,-0.6581,-0.6569,-0.6545,-0.6532,-0.6522,-0.6519,-0.6509,-0.6514,-0.6519,-0.6511,-0.6511,-0.6511,-0.651,-0.6509,-0.6514,-0.6514,-0.6514,0,-0.6714,-0.6696,-0.6681,-0.6669,-0.6659,-0.6645,-0.6635,-0.6623,-0.6601,-0.6594,-0.6591,-0.656,-0.6546,-0.6529,-0.6528,-0.652,-0.6517,-0.6517,-0.6512,-0.6512,-0.6512,-0.651,-0.651,-0.6514,-0.6514,-0.6514,-0.6514,0,-0.6706,-0.6694,-0.6688,-0.6667,-0.6657,-0.6646,-0.6629,-0.662,-0.6611,-0.6599,-0.6583,-0.6566,-0.6547,-0.6542,-0.6533,-0.6523,-0.6522,-0.6516,-0.6511,-0.6513,-0.6511,-0.6511,-0.6515,-0.6515,-0.6515,-0.6515,0,0,-0.6717,-0.6688,-0.6686,-0.6677,-0.6655,-0.6645,-0.6633,-0.6616,-0.6608,-0.6593,-0.6583,-0.6562,-0.6557,-0.6545,-0.6534,-0.6528,-0.6526,-0.6522,-0.6522,-0.6523,-0.6514,-0.6518,-0.6518,-0.652,-0.6519,-0.6519,-0.6515,0,-0.6716,-0.6695,-0.6681,-0.6666,-0.6654,-0.6639,-0.6629,-0.6614,-0.6603,-0.659,-0.6577,-0.6563,-0.6556,-0.655,-0.6542,-0.6528,-0.6524,-0.6528,-0.6509,-0.6509,-0.6514,-0.6517,-0.6522,-0.6519,-0.6514,-0.6514,-0.6514,0,-0.6712,-0.6697,-0.6681,-0.666,-0.6655,-0.6646,-0.6629,-0.6617,-0.66,-0.6592,-0.6579,-0.6568,-0.6555,-0.6551,-0.6532,-0.6535,-0.6526,-0.6518,-0.6517,-0.6515,-0.6511,-0.6514,-0.6517,-0.6517,-0.6513,-0.6513,-0.6513,0,-0.6721,-0.6698,-0.6685,-0.6677,-0.6653,-0.6647,-0.6636,-0.6619,-0.6609,-0.6594,-0.6587,-0.6571,-0.6561,-0.6548,-0.6532,-0.6531,-0.6515,-0.651,-0.6507,-0.6507,-0.6504,-0.6504,-0.6505,-0.6499,-0.6499,-0.6499,-0.6499,0,-0.6721,-0.6711,-0.6689,-0.6681,-0.6669,-0.6653,-0.6642,-0.663,-0.6615,-0.6604,-0.659,-0.658,-0.656,-0.6547,-0.6535,-0.652,-0.6516,-0.6509,-0.6505,-0.651,-0.6511,-0.6504,-0.6504,-0.6499,-0.6499,-0.6499,-0.6499,0,-0.673,-0.6714,-0.6699,-0.6678,-0.6672,-0.6664,-0.6645,-0.6637,-0.6624,-0.661,-0.6606,-0.6586,-0.657,-0.6554,-0.6532,-0.6523,-0.651,-0.6505,-0.6516,-0.6514,-0.6512,-0.6512,-0.6508,-0.6507,-0.6502,-0.6502,-0.6502,0,-0.6731,-0.6723,-0.67,-0.6692,-0.6682,-0.667,-0.666,-0.6643,-0.6633,-0.6613,-0.6607,-0.659,-0.6576,-0.6551,-0.6534,-0.6517,-0.6512,-0.6512,-0.6509,-0.6514,-0.6512,-0.6512,-0.6511,-0.6513,-0.6513,-0.6513,-0.6513,0,-0.6734,-0.6726,-0.6713,-0.6697,-0.6686,-0.6672,-0.6658,-0.6652,-0.6633,-0.6622,-0.6606,-0.6595,-0.6573,-0.6557,-0.6538,-0.6526,-0.6516,-0.6514,-0.6512,-0.6517,-0.6523,-0.6519,-0.6518,-0.6514,-0.6514,-0.6514,-0.6514,-0.6514,-0.6738,-0.6731,-0.6714,-0.6699,-0.6687,-0.6674,-0.6665,-0.6651,-0.6638,-0.6619,-0.661,-0.6594,-0.6576,-0.655,-0.6539,-0.6525,-0.6522,-0.652,-0.6519,-0.6519,-0.652,-0.6525,-0.6522,-0.6522,-0.6522,-0.6522,-0.6522,0,-0.674,-0.6729,-0.6715,-0.6696,-0.6685,-0.6677,-0.6661,-0.6652,-0.6638,-0.6623,-0.6609,-0.6591,-0.6574,-0.6556,-0.6539,-0.6532,-0.6527,-0.6528,-0.6528,-0.6525,-0.6524,-0.6527,-0.6532,-0.6532,-0.6532,-0.6532,-0.6532,-0.6532,-0.674,-0.6727,-0.6717,-0.6698,-0.6686,-0.667,-0.6662,-0.665,-0.6637,-0.6617,-0.6604,-0.6593,-0.6576,-0.6557,-0.6542,-0.6537,-0.6531,-0.6533,-0.6527,-0.6526,-0.6525,-0.6524,-0.6527,-0.6532,-0.6532,-0.6529,-0.6529,-0.6529]},{"header":{"parameterUnit":"m.s-1","parameterCategory":1,"la1":30.2991,"la2":30.254,"lo1":-89.0895,"lo2":-89.0444,"dy":0.0017,"dx":0.0017,"nx":28,"ny":28,"refTime":"2025-08-07T03:00:00:Z","depth":0,"parameterNumber":3,"parameterNumberName":"V-component_of_WINDS"},"data":[0,0,0,0,0,0,0,0,0,0,0,0,0,0,0,0,0,0,0,0,0,0,0,0,0,0,0,0,0,0,0,0,0,0,0,0,0,0,0,0,0,0,0,0,0,0,0,0,0,0,0,0,0,0,0,0,0,0,1.8824,1.8824,0,1.885,1.885,1.885,1.8867,1.8867,1.8867,1.8867,1.8891,1.8892,1.8893,0,0,0,0,0,0,0,0,0,0,0,0,0,1.8786,1.8787,1.8824,1.8824,1.8824,1.885,1.885,1.885,1.8867,1.8867,1.8867,1.8867,1.8891,1.8892,1.8893,0,0,0,0,0,0,0,0,0,0,0,0,0,1.8806,1.8787,1.8824,1.8836,1.8837,1.885,1.885,1.885,1.8867,1.8867,1.8867,1.8867,1.8891,1.8892,1.8893,1.8895,0,0,1.8895,1.8896,0,0,0,0,0,0,0,0,1.8805,1.8808,1.8833,1.8835,1.8836,1.8855,1.8846,1.8865,1.8867,1.8855,1.8867,1.8867,1.8879,1.8881,1.8885,1.8896,1.8897,1.8895,1.8896,1.8896,1.8896,0,0,0,0,0,0,0,1.8804,1.8807,1.8834,1.8834,1.8835,1.8839,1.8842,1.885,1.8866,1.8856,1.8858,1.886,1.888,1.8885,1.8886,1.8897,1.8895,1.8896,1.8897,1.8897,1.8912,1.8912,0,0,0,0,0,0,1.8801,1.8805,1.8833,1.8835,1.8821,1.884,1.8843,1.8849,1.8866,1.8869,1.886,1.8861,1.8883,1.8885,1.8887,1.8891,1.8896,1.8897,1.8897,1.8912,1.8912,1.8912,0,0,0,0,0,0,1.88,1.8803,1.8832,1.882,1.8824,1.884,1.8847,1.8849,1.8854,1.8869,1.8872,1.8862,1.8883,1.8886,1.8893,1.8892,1.8897,1.8898,1.8912,1.8912,1.8912,1.8899,0,0,0,0,0,0,1.8799,1.8803,1.8804,1.882,1.8825,1.8838,1.8847,1.885,1.8856,1.8857,1.8872,1.8874,1.8884,1.8892,1.8894,1.8893,1.8899,1.8912,1.8912,1.8912,1.89,1.8898,1.8898,0,0,0,0,0,1.8797,1.8799,1.8804,1.8807,1.8827,1.8838,1.8841,1.8852,1.8856,1.8857,1.8867,1.8874,1.8892,1.8892,1.8895,1.8895,1.8912,1.8912,1.8912,1.89,1.8899,1.8898,0,0,0,0,0,0,1.8781,1.8801,1.8807,1.8814,1.8824,1.8841,1.8843,1.885,1.8859,1.886,1.8873,1.8876,1.8882,1.8889,1.8889,1.8898,1.8903,1.8903,1.8893,1.8892,1.8891,1.8889,1.8899,0,0,0,0,0,1.8778,1.8786,1.8803,1.8808,1.8813,1.8827,1.8832,1.884,1.8851,1.8855,1.8865,1.8875,1.8883,1.8888,1.8896,1.8901,1.8904,1.8902,1.8901,1.89,1.89,1.8903,1.8902,1.8911,1.8911,1.8911,0,0,1.8773,1.8785,1.8789,1.8805,1.8814,1.8821,1.883,1.8837,1.8843,1.8856,1.8864,1.8871,1.8883,1.8889,1.8892,1.8895,1.8898,1.89,1.8899,1.8899,1.8903,1.8902,1.8901,1.8911,1.8911,1.8911,0,0,1.8766,1.8776,1.8781,1.879,1.8804,1.8814,1.8815,1.883,1.8836,1.8845,1.8855,1.8861,1.8874,1.8882,1.8888,1.8886,1.8892,1.8888,1.8882,1.8885,1.8885,1.8884,1.8883,1.8883,1.8888,1.8888,1.8888,0,1.8757,1.877,1.8783,1.879,1.8797,1.881,1.8815,1.8822,1.8838,1.8842,1.8845,1.8863,1.8871,1.888,1.8879,1.8883,1.8885,1.8886,1.8884,1.8883,1.8883,1.8883,1.8882,1.8887,1.8887,1.8887,1.8887,0,1.8758,1.8766,1.8769,1.8784,1.8791,1.8797,1.8811,1.8816,1.8824,1.8833,1.8841,1.8852,1.8863,1.8865,1.8872,1.8875,1.8876,1.8881,1.8887,1.8882,1.8881,1.8881,1.8886,1.8886,1.8887,1.8887,0,0,1.8741,1.8765,1.8766,1.8773,1.879,1.8796,1.8802,1.8814,1.8818,1.8828,1.8834,1.8846,1.8851,1.8857,1.8865,1.8868,1.8866,1.8873,1.8873,1.8871,1.8869,1.8865,1.8865,1.887,1.887,1.887,1.8868,0,1.8738,1.8751,1.8763,1.8772,1.878,1.8792,1.8798,1.8808,1.8817,1.8825,1.8834,1.8842,1.8848,1.8852,1.8855,1.8865,1.8865,1.8865,1.8875,1.8876,1.8872,1.8865,1.8861,1.8858,1.8868,1.8868,1.8868,0,1.8735,1.8746,1.8755,1.8772,1.8775,1.878,1.8792,1.8799,1.8811,1.8817,1.8825,1.8834,1.8841,1.8845,1.8855,1.8855,1.886,1.8865,1.8865,1.8867,1.8872,1.8866,1.8858,1.8857,1.8868,1.8868,1.8868,0,1.8722,1.8739,1.8747,1.8753,1.8772,1.8775,1.8783,1.8796,1.8802,1.8812,1.8816,1.8826,1.8832,1.884,1.8851,1.8853,1.886,1.8865,1.8865,1.8864,1.8865,1.8865,1.8858,1.8868,1.8868,1.8868,1.8868,0,1.8717,1.8722,1.8742,1.8747,1.8753,1.8767,1.8773,1.8782,1.8793,1.8799,1.8811,1.8816,1.8831,1.8838,1.8847,1.8854,1.8856,1.8861,1.8863,1.886,1.886,1.8864,1.8864,1.8868,1.8868,1.8868,1.8868,0,1.8704,1.8717,1.8727,1.8745,1.8749,1.8753,1.8768,1.8773,1.8783,1.8791,1.8793,1.8808,1.8818,1.883,1.8842,1.8848,1.8854,1.8858,1.8851,1.8852,1.8851,1.8851,1.8846,1.8846,1.8856,1.8856,1.8856,0,1.8699,1.8704,1.8723,1.8728,1.8736,1.8745,1.8752,1.8766,1.8772,1.8786,1.879,1.88,1.8809,1.8824,1.8835,1.8845,1.8849,1.8846,1.885,1.8847,1.8849,1.8849,1.8849,1.8845,1.8845,1.8845,1.8845,0,1.869,1.8697,1.8707,1.8719,1.8727,1.8737,1.8748,1.8752,1.8767,1.8774,1.8784,1.8791,1.8805,1.8815,1.8827,1.8834,1.8842,1.8844,1.8844,1.8841,1.8837,1.8839,1.8848,1.8844,1.8844,1.8844,1.8844,1.8844,1.8682,1.8687,1.8701,1.8711,1.8721,1.8731,1.8737,1.8747,1.8756,1.8769,1.8777,1.8787,1.8799,1.8815,1.8823,1.883,1.8833,1.8834,1.8834,1.8834,1.8833,1.8836,1.8832,1.8832,1.8832,1.8832,1.8833,0,1.8674,1.8683,1.8693,1.8708,1.8716,1.8724,1.8736,1.8742,1.8751,1.8762,1.8771,1.8783,1.8793,1.8806,1.8817,1.882,1.8824,1.8823,1.8823,1.8824,1.883,1.8828,1.882,1.882,1.882,1.882,1.882,1.882,1.867,1.8679,1.8688,1.8701,1.8711,1.8722,1.8728,1.8737,1.8746,1.8759,1.8768,1.8776,1.8788,1.88,1.8809,1.8813,1.8816,1.8813,1.8818,1.8823,1.8824,1.8825,1.8824,1.8814,1.8814,1.8812,1.8812,1.8812]}]]